Torna al catalogo

STARLINK-5935

AttivoComunicazioniVLEO
NORAD 56453·PAYLOAD·🇺🇸 United States

Lanciato May 10, 2023 da Vandenberg Space Force Base

Loading…

Prossimi Passaggi (prossime 24 ore)

TLE

AggiornatoSource: CelesTrak SupGP

Epoca: Sep 14, 2026, 21:27 UTC

1 56453C 23064F   26257.89423611 -.00015251  00000+0 -12781-2 0  2577
2 56453  70.0023  27.5250 0003160 269.2723 107.0361 14.98338339    19

Traccia STARLINK-5935 in tempo reale con AllMySat

Download on the App Store